This demonstration page uses our WeatherBlox Daily Observations layout. Learn more.

38.89511, -77.03637

Hourly Observations for January 21, 2015

Temp ( °F °C ) Dew Point ( °F °C ) Humidity (%) Winds ( mph kmh ) Pressure ( in mb ) Visibility ( mi km ) Precip ( " mm )
12:52 am 00:52 Cloudy 36 2 27 -3 70 70 NNE 3 6 30.09 1019 10 16.09344 0 0
1:52 am 01:52 Cloudy 36 2 28 -2 75 75 NNE 5 7 30.09 1019 10 16.09344 0 0
2:52 am 02:52 Cloudy 36 2 28 -2 75 75 NNE 3 6 30.09 1019 9 14.484096 0 0
4:52 am 04:52 Clear 36 2 28 -2 75 75 N 3 6 30.09 1019 7 11.265408 0 0
5:52 am 05:52 Cloudy 36 2 28 -2 75 75 NE 3 6 30.09 1019 7 11.265408 0 0
6:52 am 06:52 Cloudy 36 2 28 -2 75 75 NNE 8 13 30.12 1020 7 11.265408 0 0
7:52 am 07:52 Cloudy with Haze 36 2 28 -2 75 75 NE 9 15 30.12 1020 5 8.04672 0 0
8:52 am 08:52 Cloudy with Haze 37 3 28 -2 70 70 N 3 6 30.15 1021 6 9.656064 0 0
9:52 am 09:52 Cloudy 37 3 27 -3 65 65 ENE 8 13 30.15 1021 8 12.874752 0 0
10:52 am 10:52 Cloudy 37 3 28 -2 70 70 E 5 7 30.18 1022 9 14.484096 0 0
11:26 am 11:26 Cloudy with Light Snow 39 4 27 -3 61 61 Calm 30.18 1022 9 14.484096 0 0
11:45 am 11:45 Cloudy with Light Snow 39 4 27 -3 61 61 Calm 30.18 1022 7 11.265408 0.001 0.001
11:52 am 11:52 Cloudy with Light Snow 37 3 27 -3 65 65 NE 5 7 30.15 1021 3 4.828032 0.001 0.001
12:03 pm 12:03 Cloudy with Light Snow 37 3 28 -2 70 70 Calm 30.15 1021 2.5 4.02336 0 0
12:11 pm 12:11 Cloudy with Light Snow 37 3 28 -2 70 70 Calm 30.15 1021 1.75 2.816352 0.001 0.001
12:52 pm 12:52 Mostly Cloudy with Scattered Snow Showers 36 2 30 -1 81 81 Calm 30.15 1021 1 1.609344 0.01 0.254
1:08 pm 13:08 Mostly Cloudy with Scattered Snow Showers 36 2 30 -1 81 81 NNE 3 6 30.15 1021 0.75 1.207008 0 0
1:33 pm 13:33 Mostly Cloudy with Snow 36 2 30 -1 81 81 Calm 30.12 1020 0.5 0.804672 0.02 0.508
1:52 pm 13:52 Cloudy with Snow 34 1 30 -1 87 87 NE 3 6 30.12 1020 0.5 0.804672 0.05 1.27
2:12 pm 14:12 Cloudy with Light Rain/Snow 36 2 30 -1 81 81 NE 3 6 30.12 1020 0.75 1.207008 0 0
2:20 pm 14:20 Cloudy with Light Rain/Snow 36 2 30 -1 81 81 ENE 5 7 30.12 1020 1 1.609344 0 0
2:30 pm 14:30 Cloudy with Light Rain 36 2 30 -1 81 81 ENE 6 9 30.09 1019 2.5 4.02336 0 0
2:41 pm 14:41 Cloudy with Light Rain 36 2 30 -1 81 81 NE 6 9 30.09 1019 2.5 4.02336 0.02 0.508
2:44 pm 14:44 Cloudy with Light Rain 36 2 30 -1 81 81 NE 6 9 30.09 1019 3 4.828032 0 0
2:52 pm 14:52 Cloudy with Light Rain 36 2 30 -1 81 81 NE 6 9 30.09 1019 2.5 4.02336 0.02 0.508
3:03 pm 15:03 Cloudy with Mist and Fog 36 2 30 -1 81 81 NE 6 9 30.09 1019 3 4.828032 0 0
3:52 pm 15:52 Cloudy with Mist and Fog 36 2 30 -1 81 81 ENE 7 11 30.09 1019 6 9.656064 0.001 0.001
4:52 pm 16:52 Cloudy with Mist and Fog 36 2 30 -1 81 81 NE 5 7 30.12 1020 6 9.656064 0 0
5:52 pm 17:52 Cloudy with Mist and Fog 36 2 30 -1 81 81 NE 3 6 30.15 1021 7 11.265408 0 0
6:52 pm 18:52 Cloudy with Mist and Fog 36 2 30 -1 81 81 ENE 3 6 30.15 1021 6 9.656064 0 0
7:52 pm 19:52 Cloudy with Mist and Fog 36 2 30 -1 81 81 ESE 3 6 30.15 1021 5 8.04672 0 0
8:52 pm 20:52 Cloudy with Mist and Fog 36 2 30 -1 81 81 S 3 6 30.18 1022 5 8.04672 0 0
9:36 pm 21:36 Cloudy with Mist and Fog 36 2 30 -1 81 81 S 3 6 30.18 1022 3 4.828032 0 0
9:52 pm 21:52 Cloudy with Mist and Fog 36 2 30 -1 81 81 SSE 5 7 30.18 1022 4 6.437376 0 0
10:52 pm 22:52 Cloudy with Mist and Fog 36 2 32 0 87 87 S 5 7 30.18 1022 3 4.828032 0 0
11:47 pm 23:47 Cloudy with Mist and Fog 36 2 32 0 87 87 Calm 30.18 1022 2.5 4.02336 0 0
11:52 pm 23:52 Cloudy with Mist and Fog 36 2 32 0 87 87 S 3 6 30.18 1022 2.5 4.02336 0 0

Powered by AerisWeather